| time (UTC) | temp F | wind direction | speed knots | gust knots | rain 1hr in | rain 24hr in | rain mn in | humidity % | barometer mb |
| 20260902141504 | 86 | 197 | 0.9 | 2.6 | 0.00 | 0.00 | 0.00 | 69 | 1017.8 |
| 20260902141003 | 85 | 21 | 0.9 | 2.6 | 0.00 | 0.00 | 0.00 | 70 | 1017.8 |
| 20260902135504 | 83 | 348 | 0.0 | 0.9 | 0.00 | 0.00 | 0.00 | 78 | 1017.8 |
| 20260902135004 | 82 | 151 | 0.0 | 1.7 | 0.00 | 0.00 | 0.00 | 79 | 1017.9 |
| 20260902134504 | 82 | 20 | 0.9 | 1.7 | 0.00 | 0.00 | 0.00 | 78 | 1018.0 |
| 20260902134003 | 82 | 25 | 0.9 | 0.9 | 0.00 | 0.00 | 0.00 | 80 | 1018.0 |
| 20260902133004 | 81 | 15 | 0.0 | 0.9 | 0.00 | 0.00 | 0.00 | 82 | 1018.0 |
| 20260902132505 | 81 | 52 | 0.0 | 0.9 | 0.00 | 0.00 | 0.00 | 81 | 1018.0 |
| 20260902132004 | 80 | 124 | 0.9 | 0.9 | 0.00 | 0.00 | 0.00 | 82 | 1018.0 |
| 20260902131503 | 80 | 5 | 0.9 | 1.7 | 0.00 | 0.00 | 0.00 | 84 | 1018.0 |
| 20260902131005 | 79 | 187 | 0.9 | 0.9 | 0.00 | 0.00 | 0.00 | 85 | 1018.0 |
| 20260902130503 | 78 | 24 | 0.9 | 0.9 | 0.00 | 0.00 | 0.00 | 88 | 1018.0 |
| 20260902130004 | 78 | 351 | 0.0 | 0.9 | 0.00 | 0.00 | 0.00 | 90 | 1018.0 |
| 20260902124504 | 76 | 344 | 0.0 | 0.9 | 0.00 | 0.00 | 0.00 | 93 | 1018.1 |
| 20260902124003 | 76 | 355 | 0.0 | 0.0 | 0.00 | 0.00 | 0.00 | 96 | 1018.1 |
| 20260902123503 | 75 | 342 | 0.0 | 0.9 | 0.00 | 0.00 | 0.00 | 97 | 1018.0 |
| 20260902123004 | 75 | 220 | 0.0 | 0.9 | 0.00 | 0.00 | 0.00 | 98 | 1018.0 |
| 20260902122503 | 75 | 289 | 0.0 | 0.9 | 0.00 | 0.00 | 0.00 | 98 | 1018.0 |
| 20260902122005 | 74 | 4 | 0.9 | 0.9 | 0.00 | 0.00 | 0.00 | 98 | 1018.0 |
| 20260902121503 | 74 | 302 | 0.9 | 0.9 | 0.00 | 0.00 | 0.00 | 98 | 1018.0 |
| 20260902121003 | 74 | 193 | 0.0 | 0.0 | 0.00 | 0.00 | 0.00 | 98 | 1018.0 |
| 20260902120503 | 74 | 176 | 0.0 | 0.9 | 0.00 | 0.00 | 0.00 | 98 | 1017.9 |
| 20260902120004 | 73 | 239 | 0.0 | 0.9 | 0.00 | 0.00 | 0.00 | 98 | 1017.8 |
| 20260902115004 | 73 | 101 | 0.0 | 0.0 | 0.00 | 0.00 | 0.00 | 98 | 1017.9 |
| 20260902114003 | 73 | 256 | 0.0 | 0.9 | 0.00 | 0.00 | 0.00 | 98 | 1017.9 |
| 20260902113503 | 73 | 213 | 0.0 | 0.9 | 0.00 | 0.00 | 0.00 | 98 | 1017.9 |
| 20260902113004 | 73 | 214 | 0.0 | 0.9 | 0.00 | 0.00 | 0.00 | 98 | 1017.9 |
| 20260902112504 | 73 | 180 | 0.0 | 0.9 | 0.00 | 0.00 | 0.00 | 98 | 1017.8 |
| 20260902112004 | 73 | 152 | 0.0 | 0.0 | 0.00 | 0.00 | 0.00 | 98 | 1017.8 |
| 20260902111503 | 73 | 152 | 0.0 | 0.0 | 0.00 | 0.00 | 0.00 | 98 | 1017.8 |
| 20260902111004 | 73 | 152 | 0.0 | 0.0 | 0.00 | 0.00 | 0.00 | 98 | 1017.7 |
| 20260902110503 | 73 | 152 | 0.0 | 0.9 | 0.00 | 0.00 | 0.00 | 98 | 1017.6 |
| 20260902110007 | 73 | 243 | 0.0 | 0.9 | 0.00 | 0.00 | 0.00 | 98 | 1017.6 |
| 20260902105503 | 73 | 210 | 0.0 | 0.0 | 0.00 | 0.00 | 0.00 | 98 | 1017.6 |
| 20260902105003 | 73 | 210 | 0.0 | 0.0 | 0.00 | 0.00 | 0.00 | 98 | 1017.6 |
| 20260902104503 | 73 | 210 | 0.0 | 0.0 | 0.00 | 0.00 | 0.00 | 98 | 1017.6 |
| 20260902104004 | 73 | 210 | 0.0 | 0.9 | 0.00 | 0.00 | 0.00 | 98 | 1017.6 |
| 20260902103503 | 73 | 149 | 0.0 | 0.9 | 0.00 | 0.00 | 0.00 | 98 | 1017.6 |
| 20260902103004 | 73 | 104 | 0.0 | 0.0 | 0.00 | 0.00 | 0.00 | 98 | 1017.6 |
| 20260902102004 | 73 | 154 | 0.0 | 0.9 | 0.00 | 0.00 | 0.00 | 98 | 1017.5 |
| 20260902101504 | 73 | 307 | 0.0 | 0.0 | 0.00 | 0.00 | 0.00 | 98 | 1017.5 |
| 20260902101004 | 73 | 307 | 0.0 | 0.0 | 0.00 | 0.00 | 0.00 | 98 | 1017.5 |
| 20260902100004 | 73 | 187 | 0.0 | 0.9 | 0.00 | 0.00 | 0.00 | 98 | 1017.4 |
| 20260902094505 | 73 | 164 | 0.0 | 0.0 | 0.00 | 0.00 | 0.00 | 97 | 1017.3 |
| 20260902093003 | 73 | 0 | 0.0 | 0.9 | 0.00 | 0.00 | 0.00 | 97 | 1017.1 |
| 20260902092503 | 73 | 2 | 0.9 | 1.7 | 0.00 | 0.00 | 0.00 | 97 | 1017.1 |
| 20260902091503 | 73 | 183 | 0.0 | 0.9 | 0.00 | 0.00 | 0.00 | 97 | 1017.2 |
| 20260902091004 | 73 | 262 | 0.0 | 0.0 | 0.00 | 0.00 | 0.00 | 97 | 1017.1 |
| 20260902090004 | 73 | 263 | 0.0 | 0.0 | 0.00 | 0.00 | 0.00 | 97 | 1017.0 |
| 20260902085503 | 73 | 281 | 0.0 | 0.0 | 0.00 | 0.00 | 0.00 | 97 | 1017.0 |
| 20260902085004 | 73 | 324 | 0.0 | 0.0 | 0.00 | 0.00 | 0.00 | 97 | 1016.9 |
| 20260902084503 | 73 | 324 | 0.0 | 0.9 | 0.00 | 0.00 | 0.00 | 97 | 1016.9 |
| 20260902084004 | 73 | 177 | 0.0 | 0.9 | 0.00 | 0.00 | 0.00 | 97 | 1016.9 |
| 20260902083504 | 73 | 204 | 0.0 | 0.9 | 0.00 | 0.00 | 0.00 | 97 | 1016.9 |
| 20260902083004 | 73 | 198 | 0.0 | 0.0 | 0.00 | 0.00 | 0.00 | 96 | 1016.9 |
| 20260902082504 | 73 | 198 | 0.0 | 0.9 | 0.00 | 0.00 | 0.00 | 96 | 1016.9 |
| 20260902081004 | 74 | 333 | 0.0 | 0.9 | 0.00 | 0.00 | 0.00 | 96 | 1016.8 |
| 20260902080504 | 74 | 308 | 0.0 | 0.9 | 0.00 | 0.00 | 0.00 | 96 | 1016.8 |
| 20260902080004 | 74 | 62 | 0.0 | 0.9 | 0.00 | 0.00 | 0.00 | 96 | 1016.9 |
| 20260902075505 | 74 | 175 | 0.0 | 0.9 | 0.00 | 0.00 | 0.00 | 96 | 1016.9 |
| 20260902075004 | 74 | 359 | 0.0 | 0.9 | 0.00 | 0.00 | 0.00 | 96 | 1016.9 |
| 20260902074003 | 74 | 165 | 0.9 | 0.9 | 0.00 | 0.00 | 0.00 | 95 | 1017.0 |
| 20260902073504 | 74 | 165 | 0.9 | 0.9 | 0.00 | 0.00 | 0.00 | 95 | 1017.0 |
| 20260902073004 | 74 | 351 | 0.0 | 0.0 | 0.00 | 0.00 | 0.00 | 95 | 1017.0 |
| 20260902072503 | 74 | 351 | 0.0 | 0.9 | 0.00 | 0.00 | 0.00 | 95 | 1017.0 |
| 20260902072003 | 74 | 303 | 0.0 | 0.0 | 0.00 | 0.00 | 0.00 | 95 | 1017.1 |
| 20260902071503 | 74 | 303 | 0.0 | 0.0 | 0.00 | 0.00 | 0.00 | 95 | 1017.1 |
| 20260902071003 | 74 | 268 | 0.0 | 0.0 | 0.00 | 0.00 | 0.00 | 95 | 1017.0 |
| 20260902070504 | 74 | 268 | 0.0 | 0.9 | 0.00 | 0.00 | 0.00 | 95 | 1017.1 |
| 20260902070006 | 74 | 349 | 0.9 | 1.7 | 0.00 | 0.00 | 0.00 | 95 | 1017.2 |
| 20260902065004 | 74 | 204 | 0.9 | 1.7 | 0.00 | 0.00 | 0.00 | 94 | 1017.1 |
| 20260902064503 | 74 | 182 | 0.0 | 0.9 | 0.00 | 0.00 | 0.00 | 94 | 1017.0 |
| 20260902064004 | 75 | 323 | 0.9 | 0.9 | 0.00 | 0.00 | 0.00 | 94 | 1017.1 |
| 20260902063504 | 75 | 277 | 0.0 | 0.0 | 0.00 | 0.00 | 0.00 | 94 | 1017.1 |
| 20260902063004 | 75 | 277 | 0.0 | 0.0 | 0.00 | 0.00 | 0.00 | 93 | 1017.2 |
| 20260902062504 | 75 | 277 | 0.0 | 0.0 | 0.00 | 0.00 | 0.00 | 93 | 1017.2 |
| 20260902062004 | 75 | 188 | 0.0 | 0.0 | 0.00 | 0.00 | 0.00 | 93 | 1017.3 |
| 20260902060505 | 75 | 169 | 0.0 | 0.9 | 0.00 | 0.00 | 0.00 | 93 | 1017.2 |
| 20260902060003 | 75 | 178 | 0.0 | 0.0 | 0.00 | 0.00 | 0.00 | 93 | 1017.2 |
| 20260902055503 | 75 | 178 | 0.0 | 0.0 | 0.00 | 0.00 | 0.00 | 92 | 1017.1 |
| 20260902055004 | 75 | 221 | 0.0 | 0.9 | 0.00 | 0.00 | 0.00 | 93 | 1017.1 |
| 20260902054503 | 75 | 188 | 0.0 | 0.9 | 0.00 | 0.00 | 0.00 | 93 | 1017.1 |
| 20260902054004 | 75 | 132 | 0.0 | 0.9 | 0.00 | 0.00 | 0.00 | 92 | 1017.1 |
| 20260902053503 | 75 | 49 | 0.0 | 0.0 | 0.00 | 0.00 | 0.00 | 92 | 1017.0 |
| 20260902053003 | 75 | 272 | 0.0 | 0.0 | 0.00 | 0.00 | 0.00 | 92 | 1017.0 |
| 20260902052504 | 75 | 272 | 0.0 | 0.0 | 0.00 | 0.00 | 0.00 | 91 | 1017.0 |
| 20260902052004 | 75 | 272 | 0.0 | 0.0 | 0.00 | 0.00 | 0.00 | 91 | 1016.9 |
| 20260902051504 | 75 | 272 | 0.0 | 0.0 | 0.00 | 0.00 | 0.00 | 91 | 1016.9 |
| 20260902051005 | 75 | 272 | 0.0 | 0.9 | 0.00 | 0.00 | 0.00 | 91 | 1016.9 |
| 20260902050504 | 75 | 270 | 0.0 | 0.9 | 0.00 | 0.00 | 0.00 | 92 | 1016.9 |
| 20260902050007 | 76 | 277 | 0.0 | 0.0 | 0.00 | 0.00 | 0.00 | 91 | 1016.8 |
| 20260902045504 | 76 | 277 | 0.0 | 0.0 | 0.00 | 0.00 | 0.00 | 91 | 1016.8 |
| 20260902045003 | 76 | 277 | 0.0 | 0.0 | 0.00 | 0.00 | 0.00 | 91 | 1016.8 |
| 20260902044503 | 76 | 291 | 0.0 | 0.9 | 0.00 | 0.00 | 0.00 | 91 | 1016.7 |
| 20260902044003 | 76 | 39 | 0.0 | 0.0 | 0.00 | 0.00 | 0.00 | 90 | 1016.7 |
| 20260902043504 | 76 | 39 | 0.0 | 0.0 | 0.00 | 0.00 | 0.00 | 90 | 1016.7 |
| 20260902043004 | 76 | 153 | 0.0 | 0.0 | 0.00 | 0.00 | 0.00 | 90 | 1016.7 |
| 20260902042504 | 76 | 153 | 0.0 | 0.0 | 0.00 | 0.00 | 0.00 | 90 | 1016.6 |
| 20260902042005 | 76 | 153 | 0.0 | 0.0 | 0.00 | 0.00 | 0.00 | 89 | 1016.6 |
| 20260902041505 | 76 | 153 | 0.0 | 0.9 | 0.00 | 0.00 | 0.00 | 89 | 1016.5 |
| 20260902041004 | 76 | 280 | 0.0 | 0.9 | 0.00 | 0.00 | 0.00 | 89 | 1016.6 |
| 20260902040506 | 76 | 294 | 0.0 | 0.0 | 0.00 | 0.00 | 0.00 | 88 | 1016.6 |
| 20260902040004 | 77 | 294 | 0.0 | 0.9 | 0.00 | 0.00 | 0.00 | 88 | 1016.6 |
| 20260902035504 | 77 | 178 | 0.0 | 0.0 | 0.00 | 0.00 | 0.00 | 88 | 1016.5 |
| 20260902035004 | 77 | 178 | 0.0 | 0.0 | 0.00 | 0.00 | 0.00 | 88 | 1016.5 |
| 20260902034504 | 77 | 178 | 0.0 | 0.0 | 0.00 | 0.00 | 0.00 | 88 | 1016.5 |
| 20260902034004 | 77 | 178 | 0.0 | 0.0 | 0.00 | 0.00 | 0.00 | 88 | 1016.6 |
| 20260902033504 | 77 | 178 | 0.0 | 0.0 | 0.00 | 0.00 | 0.00 | 88 | 1016.6 |
| 20260902032505 | 77 | 178 | 0.0 | 0.0 | 0.00 | 0.00 | 0.00 | 88 | 1016.5 |
| 20260902032004 | 77 | 178 | 0.0 | 0.0 | 0.00 | 0.00 | 0.00 | 87 | 1016.5 |
| 20260902031504 | 78 | 178 | 0.0 | 0.0 | 0.00 | 0.00 | 0.00 | 86 | 1016.5 |
| 20260902031003 | 78 | 178 | 0.0 | 0.0 | 0.00 | 0.00 | 0.00 | 86 | 1016.5 |
| 20260902030504 | 78 | 178 | 0.0 | 0.9 | 0.00 | 0.00 | 0.00 | 86 | 1016.5 |
| 20260902030004 | 78 | 344 | 0.0 | 0.0 | 0.00 | 0.00 | 0.00 | 87 | 1016.5 |
| 20260902025503 | 78 | 87 | 0.0 | 0.0 | 0.00 | 0.00 | 0.00 | 86 | 1016.5 |
| 20260902025004 | 78 | 106 | 0.0 | 0.0 | 0.00 | 0.00 | 0.00 | 88 | 1016.5 |
| 20260902024502 | 78 | 190 | 0.0 | 0.9 | 0.00 | 0.00 | 0.00 | 88 | 1016.5 |
| 20260902023504 | 78 | 339 | 0.0 | 0.9 | 0.00 | 0.00 | 0.00 | 87 | 1016.4 |
| 20260902023004 | 78 | 194 | 0.0 | 0.9 | 0.00 | 0.00 | 0.00 | 87 | 1016.4 |
| 20260902022004 | 78 | 324 | 0.9 | 0.9 | 0.00 | 0.00 | 0.00 | 87 | 1016.4 |
| 20260902021504 | 78 | 325 | 0.0 | 0.0 | 0.00 | 0.00 | 0.00 | 87 | 1016.3 |
| 20260902021003 | 78 | 325 | 0.0 | 0.0 | 0.00 | 0.00 | 0.00 | 87 | 1016.3 |
| 20260902020503 | 78 | 325 | 0.0 | 0.0 | 0.00 | 0.00 | 0.00 | 87 | 1016.3 |
| 20260902020003 | 78 | 325 | 0.0 | 0.0 | 0.00 | 0.00 | 0.00 | 87 | 1016.2 |
| 20260902015504 | 78 | 325 | 0.0 | 0.9 | 0.00 | 0.00 | 0.00 | 88 | 1016.1 |
| 20260902015003 | 79 | 271 | 0.0 | 0.0 | 0.00 | 0.00 | 0.00 | 88 | 1016.1 |
| 20260902014503 | 79 | 271 | 0.0 | 0.0 | 0.00 | 0.00 | 0.00 | 88 | 1016.0 |
| 20260902014004 | 79 | 271 | 0.0 | 0.0 | 0.00 | 0.00 | 0.00 | 88 | 1016.0 |
| 20260902013003 | 79 | 271 | 0.0 | 0.0 | 0.00 | 0.00 | 0.00 | 89 | 1015.9 |
| 20260902012505 | 79 | 272 | 0.0 | 0.0 | 0.00 | 0.00 | 0.00 | 88 | 1015.9 |
| 20260902012004 | 80 | 274 | 0.0 | 0.0 | 0.00 | 0.00 | 0.00 | 88 | 1015.8 |
| 20260902011503 | 80 | 322 | 0.0 | 0.0 | 0.00 | 0.00 | 0.00 | 88 | 1015.8 |
| 20260902011004 | 80 | 219 | 0.0 | 0.9 | 0.00 | 0.00 | 0.00 | 87 | 1015.7 |
| 20260902010503 | 80 | 268 | 0.0 | 0.0 | 0.00 | 0.00 | 0.00 | 87 | 1015.6 |
| 20260902010005 | 80 | 268 | 0.0 | 0.0 | 0.00 | 0.00 | 0.00 | 87 | 1015.6 |
| 20260902005503 | 80 | 299 | 0.0 | 0.0 | 0.00 | 0.00 | 0.00 | 87 | 1015.5 |
| 20260902005003 | 81 | 351 | 0.0 | 0.9 | 0.00 | 0.00 | 0.00 | 87 | 1015.4 |
| 20260902004503 | 81 | 203 | 0.0 | 0.9 | 0.00 | 0.00 | 0.00 | 86 | 1015.5 |
| 20260902004004 | 81 | 258 | 0.0 | 0.9 | 0.00 | 0.00 | 0.00 | 86 | 1015.5 |
| 20260902003502 | 81 | 244 | 0.0 | 0.0 | 0.00 | 0.00 | 0.00 | 86 | 1015.5 |
| 20260902003004 | 82 | 192 | 0.0 | 0.9 | 0.00 | 0.00 | 0.00 | 86 | 1015.4 |
| 20260902002505 | 82 | 235 | 0.0 | 0.9 | 0.00 | 0.00 | 0.00 | 85 | 1015.5 |
| 20260902002003 | 82 | 323 | 0.0 | 0.9 | 0.00 | 0.00 | 0.00 | 85 | 1015.4 |
| 20260902001502 | 82 | 269 | 0.0 | 0.9 | 0.00 | 0.00 | 0.00 | 85 | 1015.5 |
| 20260902001005 | 83 | 278 | 0.0 | 0.9 | 0.00 | 0.00 | 0.00 | 84 | 1015.5 |
| 20260902000504 | 83 | 330 | 0.0 | 0.9 | 0.00 | 0.00 | 0.00 | 84 | 1015.6 |
| 20260902000003 | 83 | 298 | 0.0 | 0.9 | 0.00 | 0.00 | 0.00 | 83 | 1015.5 |
| 20260901235503 | 84 | 186 | 0.0 | 0.9 | 0.00 | 0.00 | 0.00 | 82 | 1015.6 |
| 20260901234503 | 85 | 4 | 0.0 | 0.9 | 0.00 | 0.00 | 0.00 | 79 | 1015.6 |
| 20260901233503 | 85 | 256 | 0.0 | 0.9 | 0.00 | 0.00 | 0.00 | 78 | 1015.7 |
| 20260901233004 | 86 | 165 | 0.0 | 0.9 | 0.00 | 0.00 | 0.00 | 76 | 1015.8 |
| 20260901232503 | 86 | 217 | 0.0 | 0.9 | 0.00 | 0.00 | 0.00 | 75 | 1015.8 |
| 20260901232003 | 87 | 239 | 0.0 | 0.9 | 0.00 | 0.00 | 0.00 | 74 | 1015.8 |
| 20260901231004 | 88 | 323 | 0.0 | 0.9 | 0.00 | 0.00 | 0.00 | 70 | 1015.8 |
| 20260901230504 | 88 | 166 | 0.0 | 0.9 | 0.00 | 0.00 | 0.00 | 69 | 1015.8 |
| 20260901230002 | 89 | 238 | 0.0 | 0.9 | 0.00 | 0.00 | 0.00 | 68 | 1015.8 |
| 20260901225503 | 89 | 335 | 0.0 | 0.9 | 0.00 | 0.00 | 0.00 | 66 | 1015.8 |
| 20260901225003 | 89 | 242 | 0.0 | 0.9 | 0.00 | 0.00 | 0.00 | 65 | 1015.7 |
| 20260901224503 | 90 | 251 | 0.0 | 0.9 | 0.00 | 0.00 | 0.00 | 64 | 1015.7 |
| 20260901223503 | 90 | 303 | 0.0 | 0.9 | 0.00 | 0.00 | 0.00 | 62 | 1015.8 |
| 20260901223004 | 90 | 302 | 0.0 | 0.9 | 0.00 | 0.00 | 0.00 | 62 | 1015.7 |
| 20260901222504 | 91 | 283 | 0.0 | 0.9 | 0.00 | 0.00 | 0.00 | 61 | 1015.8 |
| 20260901222003 | 91 | 250 | 0.0 | 0.9 | 0.00 | 0.00 | 0.00 | 61 | 1015.7 |
| 20260901221506 | 91 | 320 | 0.0 | 0.9 | 0.00 | 0.00 | 0.00 | 59 | 1015.7 |
| 20260901221003 | 91 | 349 | 0.0 | 0.9 | 0.00 | 0.00 | 0.00 | 58 | 1015.7 |
| 20260901220004 | 92 | 268 | 0.0 | 0.9 | 0.00 | 0.00 | 0.00 | 56 | 1015.7 |
| 20260901215504 | 93 | 315 | 0.0 | 1.7 | 0.00 | 0.00 | 0.00 | 56 | 1015.7 |
| 20260901215003 | 93 | 271 | 0.9 | 0.9 | 0.00 | 0.00 | 0.00 | 52 | 1015.8 |
| 20260901214503 | 93 | 278 | 0.0 | 0.9 | 0.00 | 0.00 | 0.00 | 50 | 1015.8 |
| 20260901214003 | 94 | 288 | 0.9 | 1.7 | 0.00 | 0.00 | 0.00 | 47 | 1015.7 |
| 20260901213003 | 94 | 340 | 0.9 | 1.7 | 0.00 | 0.00 | 0.00 | 47 | 1015.8 |
| 20260901212503 | 94 | 345 | 0.0 | 0.9 | 0.00 | 0.00 | 0.00 | 50 | 1015.7 |
| 20260901212003 | 94 | 284 | 0.0 | 1.7 | 0.00 | 0.00 | 0.00 | 46 | 1015.7 |
| 20260901211502 | 94 | 352 | 0.9 | 1.7 | 0.00 | 0.00 | 0.00 | 47 | 1015.7 |
| 20260901211003 | 94 | 318 | 0.9 | 2.6 | 0.00 | 0.00 | 0.00 | 48 | 1015.7 |
| 20260901210003 | 94 | 0 | 0.9 | 1.7 | 0.00 | 0.00 | 0.00 | 46 | 1015.8 |
| 20260901205503 | 94 | 4 | 0.0 | 1.7 | 0.00 | 0.00 | 0.00 | 45 | 1015.8 |
| 20260901205004 | 94 | 313 | 0.9 | 1.7 | 0.00 | 0.00 | 0.00 | 46 | 1015.8 |
| 20260901204502 | 95 | 17 | 0.9 | 0.9 | 0.00 | 0.00 | 0.00 | 49 | 1015.8 |
| 20260901203504 | 94 | 341 | 0.9 | 1.7 | 0.00 | 0.00 | 0.00 | 46 | 1015.9 |
| 20260901203003 | 95 | 207 | 0.9 | 2.6 | 0.00 | 0.00 | 0.00 | 46 | 1015.8 |
| 20260901202502 | 95 | 194 | 0.9 | 1.7 | 0.00 | 0.00 | 0.00 | 45 | 1015.8 |
| 20260901202003 | 95 | 328 | 0.9 | 1.7 | 0.00 | 0.00 | 0.00 | 47 | 1015.8 |
| 20260901201503 | 95 | 15 | 0.9 | 1.7 | 0.00 | 0.00 | 0.00 | 48 | 1015.8 |
| 20260901201003 | 95 | 211 | 1.7 | 2.6 | 0.00 | 0.00 | 0.00 | 49 | 1015.9 |
| 20260901200504 | 95 | 288 | 0.9 | 1.7 | 0.00 | 0.00 | 0.00 | 48 | 1016.0 |
| 20260901200003 | 95 | 7 | 1.7 | 2.6 | 0.00 | 0.00 | 0.00 | 49 | 1016.0 |
| 20260901195503 | 95 | 297 | 0.0 | 2.6 | 0.00 | 0.00 | 0.00 | 50 | 1016.0 |
| 20260901195003 | 94 | 286 | 0.0 | 2.6 | 0.00 | 0.00 | 0.00 | 51 | 1016.0 |
| 20260901194504 | 94 | 183 | 0.9 | 2.6 | 0.00 | 0.00 | 0.00 | 50 | 1016.1 |
| 20260901193504 | 95 | 282 | 1.7 | 4.3 | 0.00 | 0.00 | 0.00 | 47 | 1016.2 |
| 20260901193003 | 95 | 353 | 0.9 | 2.6 | 0.00 | 0.00 | 0.00 | 50 | 1016.3 |
| 20260901192502 | 95 | 164 | 0.0 | 2.6 | 0.00 | 0.00 | 0.00 | 48 | 1016.3 |
| 20260901192003 | 95 | 41 | 0.9 | 2.6 | 0.00 | 0.00 | 0.00 | 52 | 1016.4 |
| 20260901191503 | 95 | 161 | 0.9 | 1.7 | 0.00 | 0.00 | 0.00 | 50 | 1016.4 |
| 20260901191003 | 95 | 272 | 0.9 | 2.6 | 0.00 | 0.00 | 0.00 | 50 | 1016.4 |
| 20260901190503 | 95 | 359 | 0.9 | 1.7 | 0.00 | 0.00 | 0.00 | 48 | 1016.5 |
| 20260901190003 | 94 | 30 | 1.7 | 2.6 | 0.00 | 0.00 | 0.00 | 50 | 1016.6 |
| 20260901185503 | 95 | 211 | 1.7 | 2.6 | 0.00 | 0.00 | 0.00 | 50 | 1016.6 |
| 20260901185004 | 95 | 324 | 0.9 | 1.7 | 0.00 | 0.00 | 0.00 | 49 | 1016.7 |
| 20260901184503 | 95 | 150 | 0.9 | 1.7 | 0.00 | 0.00 | 0.00 | 51 | 1016.7 |
| 20260901184003 | 94 | 201 | 0.9 | 1.7 | 0.00 | 0.00 | 0.00 | 50 | 1016.7 |
| 20260901183503 | 94 | 319 | 0.9 | 2.6 | 0.00 | 0.00 | 0.00 | 51 | 1016.7 |
| 20260901183003 | 95 | 301 | 0.9 | 2.6 | 0.00 | 0.00 | 0.00 | 49 | 1016.8 |
| 20260901182504 | 94 | 252 | 0.9 | 1.7 | 0.00 | 0.00 | 0.00 | 53 | 1016.8 |
| 20260901182004 | 95 | 0 | 0.9 | 4.3 | 0.00 | 0.00 | 0.00 | 50 | 1016.8 |
| 20260901181502 | 95 | 279 | 0.0 | 1.7 | 0.00 | 0.00 | 0.00 | 49 | 1016.7 |
| 20260901181003 | 95 | 44 | 0.9 | 1.7 | 0.00 | 0.00 | 0.00 | 50 | 1016.7 |
| 20260901180003 | 95 | 62 | 0.9 | 2.6 | 0.00 | 0.00 | 0.00 | 50 | 1016.9 |
| 20260901175504 | 95 | 256 | 0.0 | 0.9 | 0.00 | 0.00 | 0.00 | 49 | 1016.9 |
| 20260901175003 | 95 | 126 | 0.0 | 2.6 | 0.00 | 0.00 | 0.00 | 50 | 1016.9 |
| 20260901174503 | 94 | 249 | 0.0 | 2.6 | 0.00 | 0.00 | 0.00 | 50 | 1017.0 |
| 20260901174004 | 94 | 341 | 0.9 | 1.7 | 0.00 | 0.00 | 0.00 | 52 | 1017.0 |
| 20260901173503 | 94 | 114 | 1.7 | 2.6 | 0.00 | 0.00 | 0.00 | 52 | 1017.0 |
| 20260901173003 | 94 | 348 | 0.9 | 1.7 | 0.00 | 0.00 | 0.00 | 53 | 1017.1 |
| 20260901172503 | 94 | 99 | 0.9 | 2.6 | 0.00 | 0.00 | 0.00 | 52 | 1017.1 |
| 20260901171503 | 93 | 115 | 0.9 | 1.7 | 0.00 | 0.00 | 0.00 | 54 | 1017.1 |
| 20260901171003 | 93 | 145 | 0.9 | 1.7 | 0.00 | 0.00 | 0.00 | 56 | 1017.1 |
| 20260901170003 | 92 | 155 | 0.9 | 2.6 | 0.00 | 0.00 | 0.00 | 55 | 1017.3 |
| 20260901165503 | 92 | 153 | 0.9 | 1.7 | 0.00 | 0.00 | 0.00 | 55 | 1017.3 |
| 20260901165003 | 92 | 141 | 1.7 | 2.6 | 0.00 | 0.00 | 0.00 | 56 | 1017.3 |
| 20260901164503 | 92 | 15 | 0.9 | 2.6 | 0.00 | 0.00 | 0.00 | 57 | 1017.4 |
| 20260901164004 | 92 | 55 | 0.9 | 1.7 | 0.00 | 0.00 | 0.00 | 58 | 1017.4 |
| 20260901163504 | 92 | 113 | 0.0 | 2.6 | 0.00 | 0.00 | 0.00 | 57 | 1017.5 |
| 20260901162503 | 91 | 286 | 0.9 | 1.7 | 0.00 | 0.00 | 0.00 | 58 | 1017.6 |
| 20260901162003 | 91 | 209 | 0.9 | 2.6 | 0.00 | 0.00 | 0.00 | 59 | 1017.8 |
| 20260901161003 | 90 | 179 | 0.9 | 2.6 | 0.00 | 0.00 | 0.00 | 59 | 1017.9 |
| 20260901160503 | 90 | 155 | 1.7 | 4.3 | 0.00 | 0.00 | 0.00 | 62 | 1017.9 |
| 20260901160003 | 90 | 321 | 0.9 | 2.6 | 0.00 | 0.00 | 0.00 | 63 | 1018.0 |
| 20260901155503 | 89 | 259 | 0.9 | 1.7 | 0.00 | 0.00 | 0.00 | 61 | 1018.1 |
| 20260901155003 | 89 | 322 | 0.9 | 4.3 | 0.00 | 0.00 | 0.00 | 64 | 1018.1 |
| 20260901154503 | 89 | 36 | 0.9 | 2.6 | 0.00 | 0.00 | 0.00 | 63 | 1018.1 |
| 20260901154003 | 89 | 159 | 0.9 | 2.6 | 0.00 | 0.00 | 0.00 | 63 | 1018.2 |
| 20260901153503 | 89 | 3 | 0.9 | 2.6 | 0.00 | 0.00 | 0.00 | 66 | 1018.3 |
| 20260901153004 | 89 | 106 | 0.9 | 2.6 | 0.00 | 0.00 | 0.00 | 66 | 1018.4 |
| 20260901152503 | 88 | 355 | 0.0 | 1.7 | 0.00 | 0.00 | 0.00 | 67 | 1018.4 |
| 20260901152003 | 87 | 33 | 0.0 | 0.9 | 0.00 | 0.00 | 0.00 | 68 | 1018.4 |
| 20260901151503 | 87 | 132 | 0.9 | 1.7 | 0.00 | 0.00 | 0.00 | 67 | 1018.5 |
| 20260901151004 | 87 | 318 | 0.9 | 4.3 | 0.00 | 0.00 | 0.00 | 70 | 1018.5 |
| 20260901150003 | 87 | 67 | 0.0 | 1.7 | 0.00 | 0.00 | 0.00 | 70 | 1018.6 |
| 20260901145003 | 86 | 326 | 0.9 | 2.6 | 0.00 | 0.00 | 0.00 | 71 | 1018.6 |
| 20260901144503 | 86 | 345 | 0.9 | 1.7 | 0.00 | 0.00 | 0.00 | 71 | 1018.6 |
| 20260901143503 | 86 | 19 | 0.9 | 2.6 | 0.00 | 0.00 | 0.00 | 72 | 1018.6 |
| 20260901143004 | 86 | 355 | 0.9 | 1.7 | 0.00 | 0.00 | 0.00 | 72 | 1018.6 |
| 20260901142004 | 85 | 24 | 0.9 | 1.7 | 0.00 | 0.00 | 0.00 | 73 | 1018.6 |